Find Astra 3A

NORAD ID: 27400 Int'l Des: 2002-015 Owner: SESA Country: L operational
HEOCIRCULAR

实时位置

正在加载3D地球...

关于 Astra 3A

正在加载描述...

即将过境

Passes for default location (London). Set your location on the main map for personalized predictions.

高度历史

Loading altitude history...

两行轨道根数

1 27400U 02015B 26105.58489162 -.00000164 00000-0 00000-0 0 9990
2 27400 10.4045 48.4618 0002951 276.5992 89.3014 0.99089071 87954
Epoch: Apr 15, 2026 • Age: 20 hours

当前状态

高度 36111.9 km
速度 3.06 km/s
星下点 -7.98°S, 3.09°W
发射日期 Mar 29, 2002
运行时间 24 years
类型 other

技术详情

分类 Payload
质量 865.00 kg
干质量 700.00 kg
总质量 1495.00 kg
长度 8.00 m
直径 2.20 m
跨度 8.00 m
形状 Cyl
制造商 BOES
平台类型 HS-376HP
阶段状态 In Orbit
所有者/国家 SESA/L

Most Searched